FW4838 Weather Reports


Display with metric or nautical units.
time (UTC)temp
F
wind
direction
speed
MPH
gust
MPH
rain 1hr
in
rain 24hr
in
rain mn
in
humidity
%
barometer
mb
20191123024531 42 321 4.0 8.0 0.00 0.07 0.06 84 1022.1
20191123024003 42 346 3.0 6.0 0.00 0.07 0.06 85 1022.0
20191123023506 42 355 3.0 6.0 0.00 0.07 0.06 84 1022.0
20191123023012 42 5 3.0 9.0 0.00 0.07 0.06 83 1021.9
20191123022504 42 328 4.0 9.0 0.00 0.07 0.06 83 1021.9
20191123022002 42 342 3.0 8.0 0.00 0.07 0.06 83 1021.9
20191123021516 42 340 4.0 9.0 0.00 0.07 0.06 83 1021.8
20191123021003 42 328 4.0 9.0 0.00 0.07 0.06 84 1021.8
20191123020502 42 326 3.0 6.0 0.00 0.07 0.06 84 1021.9
20191123020007 42 328 2.0 8.0 0.00 0.07 0.06 85 1021.7
20191123015507 42 321 3.0 6.0 0.00 0.07 0.06 85 1021.7
20191123015006 42 328 3.0 5.0 0.00 0.07 0.06 85 1021.7
20191123014504 42 336 2.0 4.0 0.00 0.07 0.06 85 1021.6
20191123014003 42 317 2.0 6.0 0.00 0.07 0.06 85 1021.6
20191123013502 42 301 3.0 8.0 0.00 0.07 0.06 84 1021.7
20191123012601 42 302 3.0 8.0 0.00 0.07 0.06 84 1021.5
20191123012116 42 307 4.0 8.0 0.00 0.07 0.06 84 1021.5
20191123011059 42 307 2.0 5.0 0.00 0.07 0.06 85 1021.3
20191123010559 42 302 3.0 8.0 0.00 0.07 0.06 84 1021.3
20191123010234 42 296 3.0 8.0 0.00 0.07 0.06 84 1021.3
20191123005559 42 302 2.0 5.0 0.00 0.07 0.06 84 1021.2
20191123005059 42 322 2.0 6.0 0.00 0.07 0.06 84 1021.1
20191123004720 42 333 3.0 8.0 0.00 0.07 0.06 84 1021.2
20191123004104 42 311 3.0 8.0 0.00 0.07 0.06 84 1021.2
20191123003610 42 305 5.0 7.0 0.00 0.07 0.06 84 1021.0
20191123003204 42 293 3.0 7.0 0.00 0.07 0.06 84 1021.2
20191123002557 42 304 3.0 5.0 0.00 0.07 0.06 84 1021.3
20191123002057 42 307 2.0 5.0 0.00 0.07 0.06 85 1021.1
20191123001623 42 300 3.0 5.0 0.00 0.07 0.06 85 1021.1
20191123001105 42 313 2.0 6.0 0.00 0.07 0.06 84 1021.1
20191123000556 42 306 3.0 6.0 0.00 0.07 0.06 84 1021.1
20191123000246 42 300 3.0 8.0 0.00 0.07 0.06 84 1021.2
20191122235557 42 334 4.0 8.0 0.00 0.08 0.06 84 1021.2
20191122235104 42 333 2.0 9.0 0.00 0.08 0.06 83 1021.1
20191122234707 42 300 4.0 9.0 0.00 0.08 0.06 83 1021.2
20191122234055 42 314 4.0 11.0 0.00 0.08 0.06 83 1021.1
20191122233557 42 312 6.0 11.0 0.00 0.08 0.06 83 1021.2
20191122233237 42 296 7.0 12.0 0.00 0.08 0.06 83 1021.1
20191122232555 42 323 7.0 12.0 0.00 0.08 0.06 83 1021.1
20191122232055 42 318 4.0 10.0 0.00 0.08 0.06 83 1021.1
20191122231750 42 338 5.0 10.0 0.00 0.08 0.06 83 1021.2
20191122231054 42 321 4.0 8.0 0.00 0.08 0.06 84 1021.1
20191122230555 42 306 4.0 11.0 0.00 0.08 0.06 84 1021.0
20191122230132 42 307 7.0 11.0 0.00 0.08 0.06 83 1021.0
20191122224638 42 325 4.0 11.0 0.00 0.08 0.06 84 1021.1
20191122224052 42 312 6.0 11.0 0.00 0.08 0.06 84 1021.0
20191122223603 42 348 4.0 12.0 0.00 0.08 0.06 84 1021.0
20191122223141 43 321 3.0 11.0 0.00 0.08 0.06 84 1021.1
20191122222551 43 290 6.0 12.0 0.00 0.08 0.06 84 1021.0
20191122222052 43 317 5.0 13.0 0.00 0.08 0.06 84 1021.0
20191122221646 43 338 5.0 10.0 0.00 0.08 0.06 84 1021.1
20191122221051 43 322 5.0 11.0 0.00 0.08 0.06 85 1021.0
20191122220557 43 308 6.0 13.0 0.00 0.08 0.06 84 1021.0
20191122220157 42 328 7.0 13.0 0.00 0.08 0.06 84 1021.1
20191122215550 43 309 6.0 12.0 0.00 0.08 0.06 85 1021.1
20191122215050 43 300 5.0 11.0 0.00 0.08 0.06 85 1021.1
20191122214707 43 315 4.0 13.0 0.00 0.08 0.06 86 1021.1
20191122214051 43 329 6.0 13.0 0.00 0.08 0.06 85 1021.1
20191122213607 43 343 4.0 13.0 0.00 0.08 0.06 86 1021.1
20191122213236 43 334 8.0 13.0 0.00 0.08 0.06 85 1021.1
20191122212549 43 317 6.0 11.0 0.00 0.08 0.06 85 1021.3
20191122212057 43 333 4.0 12.0 0.00 0.08 0.06 85 1021.2
20191122211725 43 323 4.0 9.0 0.00 0.08 0.06 85 1021.2
20191122211053 43 336 4.0 11.0 0.00 0.08 0.06 85 1021.2
20191122210548 43 348 6.0 11.0 0.00 0.08 0.06 84 1021.2
20191122210151 43 309 6.0 11.0 0.00 0.08 0.06 84 1021.1
20191122205548 43 336 5.0 14.0 0.00 0.08 0.06 84 1021.0
20191122205047 43 313 7.0 14.0 0.00 0.08 0.06 83 1021.1
20191122204748 44 285 6.0 13.0 0.00 0.08 0.06 83 1021.2
20191122204052 44 294 5.0 11.0 0.00 0.08 0.06 83 1021.2
20191122203546 44 340 5.0 11.0 0.00 0.08 0.06 83 1021.2
20191122203145 44 306 6.0 12.0 0.00 0.08 0.06 83 1021.4
20191122202558 44 313 7.0 12.0 0.00 0.08 0.06 83 1021.4
20191122202424 43 321 4.0 11.0 0.00 0.08 0.06 85 1021.3
20191122202122 43 355 7.0 11.0 0.00 0.08 0.06 84 1021.4
20191122201051 43 342 7.0 12.0 0.00 0.08 0.06 84 1021.4
20191122200546 44 360 8.0 12.0 0.00 0.08 0.06 84 1021.5
20191122200156 44 319 7.0 12.0 0.00 0.08 0.06 84 1021.5
20191122195545 44 318 5.0 13.0 0.00 0.08 0.06 84 1021.6
20191122195056 44 321 7.0 13.0 0.00 0.08 0.06 84 1021.6
20191122194748 44 317 4.0 12.0 0.00 0.08 0.06 84 1021.7
20191122194045 44 318 6.0 14.0 0.00 0.08 0.06 84 1021.7
20191122193552 44 281 7.0 14.0 0.00 0.08 0.06 84 1021.8
20191122193132 44 296 9.0 14.0 0.00 0.08 0.06 83 1021.8
20191122192559 44 298 6.0 13.0 0.00 0.08 0.06 85 1021.9
20191122192043 44 309 7.0 13.0 0.00 0.08 0.06 85 1021.9
20191122191652 44 355 6.0 13.0 0.00 0.08 0.06 85 1022.0
20191122191045 44 320 6.0 13.0 0.00 0.08 0.06 86 1022.0
20191122190543 44 331 7.0 13.0 0.00 0.08 0.06 85 1022.1
20191122190131 43 318 6.0 12.0 0.00 0.08 0.06 87 1022.1
20191122185542 43 279 6.0 14.0 0.00 0.08 0.06 87 1022.2
20191122185059 43 285 10.0 14.0 0.00 0.08 0.06 86 1022.2
20191122184608 43 328 5.0 13.0 0.00 0.08 0.06 87 1022.2
20191122184050 43 320 6.0 14.0 0.00 0.08 0.06 86 1022.3
20191122183541 43 317 7.0 14.0 0.00 0.08 0.06 87 1022.4
20191122183139 44 342 5.0 13.0 0.00 0.08 0.06 88 1022.4
20191122182544 43 319 7.0 13.0 0.00 0.08 0.06 87 1022.4
20191122182040 43 321 6.0 12.0 0.00 0.08 0.06 88 1022.7
20191122181638 43 324 7.0 12.0 0.00 0.08 0.06 89 1022.7
20191122181048 43 290 6.0 11.0 0.00 0.08 0.06 88 1022.8
20191122180540 43 312 5.0 11.0 0.00 0.08 0.06 89 1022.7
20191122180109 43 355 5.0 11.0 0.00 0.08 0.06 89 1022.8
20191122175540 43 334 6.0 13.0 0.00 0.08 0.06 88 1022.9
20191122175039 43 299 5.0 11.0 0.00 0.08 0.06 89 1022.8
20191122174656 43 302 4.0 11.0 0.00 0.08 0.06 90 1022.9
20191122174042 43 331 5.0 12.0 0.00 0.08 0.06 89 1023.0
20191122173539 43 320 5.0 12.0 0.00 0.08 0.06 90 1023.2
20191122173141 42 302 5.0 13.0 0.00 0.08 0.06 90 1023.1
20191122172541 42 338 7.0 14.0 0.00 0.08 0.06 90 1023.3
20191122172038 43 350 6.0 14.0 0.00 0.08 0.06 90 1023.2
20191122171558 42 338 6.0 10.0 0.00 0.08 0.06 90 1023.2
20191122171037 43 317 4.0 9.0 0.00 0.08 0.06 92 1023.3
20191122170544 42 329 5.0 11.0 0.00 0.08 0.06 92 1023.3
20191122170051 42 303 5.0 12.0 0.00 0.08 0.06 91 1023.2
20191122165537 42 319 5.0 12.0 0.00 0.08 0.06 92 1023.3
20191122165045 42 301 6.0 11.0 0.00 0.08 0.06 91 1023.3
20191122164715 42 328 6.0 12.0 0.00 0.08 0.06 92 1023.3
20191122164048 42 331 6.0 13.0 0.00 0.08 0.06 92 1023.3
20191122163535 42 329 6.0 11.0 0.00 0.08 0.06 92 1023.3
20191122163059 42 334 5.0 12.0 0.00 0.08 0.06 92 1023.3
20191122162535 42 342 7.0 12.0 0.00 0.08 0.06 92 1023.5
20191122162034 42 346 5.0 12.0 0.00 0.08 0.06 94 1023.4
20191122161652 41 329 7.0 12.0 0.00 0.08 0.06 94 1023.5
20191122161046 41 297 7.0 14.0 0.00 0.08 0.06 95 1023.5
20191122160533 41 292 7.0 14.0 0.00 0.08 0.06 95 1023.5
20191122160108 41 302 6.0 13.0 0.00 0.08 0.06 94 1023.4
20191122155539 41 317 6.0 13.0 0.00 0.08 0.06 94 1023.4
20191122155036 41 320 4.0 12.0 0.00 0.08 0.06 94 1023.3
20191122154548 41 346 7.0 12.0 0.00 0.08 0.06 94 1023.3
20191122154031 41 327 5.0 13.0 0.00 0.08 0.06 94 1023.2
20191122153531 41 306 5.0 13.0 0.00 0.08 0.06 94 1023.1
20191122153107 41 330 6.0 14.0 0.00 0.08 0.06 94 1023.1
20191122152538 40 340 8.0 14.0 0.00 0.08 0.06 94 1023.0
20191122152027 41 346 5.0 16.0 0.00 0.08 0.06 94 1022.8
20191122151626 40 321 9.0 16.0 0.00 0.08 0.06 94 1022.6
20191122151026 41 360 7.0 13.0 0.00 0.08 0.06 94 1022.6
20191122150525 41 346 6.0 13.0 0.00 0.08 0.06 95 1022.6
20191122150101 40 324 7.0 17.0 0.00 0.08 0.06 95 1022.5
20191122145525 40 296 7.0 17.0 0.00 0.08 0.06 95 1022.6
20191122145024 40 334 7.0 14.0 0.00 0.08 0.06 95 1022.4
20191122144611 40 334 6.0 15.0 0.00 0.08 0.06 95 1022.5
20191122144028 40 331 5.0 15.0 0.00 0.08 0.06 95 1022.5
20191122143523 40 338 8.0 15.0 0.00 0.08 0.06 95 1022.5
20191122143108 40 323 5.0 16.0 0.00 0.08 0.06 96 1022.6
20191122142522 40 315 8.0 16.0 0.00 0.08 0.06 95 1022.4
20191122142020 40 306 8.0 18.0 0.00 0.08 0.06 95 1022.2
20191122141547 40 301 9.0 18.0 0.00 0.08 0.06 95 1022.0
20191122141018 41 347 9.0 18.0 0.00 0.08 0.06 95 1022.0
20191122140522 41 308 9.0 17.0 0.00 0.08 0.06 95 1021.9
20191122140024 41 288 7.0 17.0 0.00 0.08 0.06 95 1021.9
20191122135516 41 310 10.0 17.0 0.00 0.08 0.06 95 1021.7
20191122135021 41 332 10.0 15.0 0.00 0.08 0.06 95 1021.6
20191122134548 41 317 6.0 15.0 0.00 0.08 0.06 95 1021.6
20191122134012 41 315 6.0 14.0 0.00 0.08 0.06 95 1021.5
20191122133511 41 320 5.0 15.0 0.00 0.08 0.06 95 1021.6
20191122133013 41 320 7.0 17.0 0.00 0.08 0.06 95 1021.3
20191122132508 41 317 8.0 17.0 0.00 0.08 0.06 95 1021.2
20191122132007 41 322 6.0 15.0 0.00 0.08 0.06 95 1021.2
20191122131512 42 298 8.0 13.0 0.00 0.08 0.06 95 1021.3
20191122131005 42 323 6.0 14.0 0.00 0.08 0.06 95 1020.9
20191122130504 42 316 7.0 12.0 0.00 0.08 0.06 95 1020.9
20191122130004 42 331 6.0 10.0 0.00 0.08 0.06 95 1020.7
20191122125503 42 329 4.0 12.0 0.00 0.08 0.06 95 1020.6
20191122125001 42 327 6.0 13.0 0.00 0.08 0.06 95 1020.2
20191122124501 42 308 7.0 12.0 0.00 0.08 0.06 95 1020.4
20191122124100 42 331 5.0 12.0 0.00 0.08 0.06 95 1020.1
20191122123559 42 317 4.0 10.0 0.00 0.08 0.06 95 1020.0
20191122123228 42 347 4.0 9.0 0.00 0.08 0.06 96 1019.9
20191122122604 42 316 3.0 8.0 0.00 0.08 0.06 96 1019.9
20191122122059 42 344 3.0 6.0 0.00 0.08 0.06 96 1019.6
20191122121638 42 44 2.0 6.0 0.00 0.08 0.06 96 1018.9
20191122121056 42 36 2.0 8.0 0.00 0.08 0.06 96 1019.0
20191122120555 42 351 2.0 8.0 0.00 0.08 0.06 96 1019.2
20191122120311 42 360 3.0 8.0 0.00 0.08 0.06 96 1019.2
20191122115558 42 336 2.0 9.0 0.00 0.08 0.06 96 1019.3
20191122115055 42 301 4.0 9.0 0.00 0.08 0.06 96 1019.4
20191122114728 42 338 2.0 9.0 0.00 0.08 0.06 96 1019.4
20191122114104 42 311 4.0 11.0 0.00 0.08 0.06 96 1019.3
20191122113607 42 326 6.0 11.0 0.00 0.08 0.06 96 1019.3
20191122113230 42 345 4.0 12.0 0.00 0.08 0.06 96 1019.2
20191122112552 42 313 5.0 14.0 0.00 0.08 0.06 96 1019.3
20191122112050 42 331 8.0 14.0 0.00 0.08 0.06 96 1019.2
20191122111647 42 306 5.0 13.0 0.00 0.08 0.06 96 1019.2
20191122111049 42 314 6.0 13.0 0.00 0.08 0.06 96 1019.1
20191122110548 42 315 7.0 18.0 0.01 0.08 0.06 96 1019.1
20191122110115 42 333 5.0 14.0 0.01 0.08 0.06 96 1019.3
20191122105546 42 319 4.0 14.0 0.01 0.08 0.06 96 1019.4
20191122105045 42 331 5.0 13.0 0.01 0.08 0.06 96 1019.1
20191122104740 42 323 8.0 16.0 0.01 0.08 0.06 96 1018.7
20191122104049 43 328 8.0 16.0 0.01 0.08 0.06 96 1018.6
20191122103544 43 323 8.0 15.0 0.01 0.08 0.06 96 1018.6
20191122103143 43 329 7.0 15.0 0.01 0.08 0.06 96 1019.0
20191122102549 43 291 5.0 14.0 0.01 0.08 0.06 96 1019.3
20191122102042 43 315 6.0 14.0 0.01 0.08 0.06 96 1019.2
20191122101557 43 337 7.0 14.0 0.01 0.08 0.06 96 1019.1
20191122101039 43 360 6.0 15.0 0.01 0.08 0.06 96 1018.7
20191122100539 43 335 4.0 18.0 0.00 0.07 0.05 96 1019.1
20191122100123 43 325 10.0 18.0 0.00 0.07 0.05 96 1019.0
20191122095545 43 327 7.0 15.0 0.00 0.07 0.05 96 1019.0
20191122095049 43 308 7.0 17.0 0.00 0.07 0.05 96 1019.1
20191122094553 43 288 10.0 17.0 0.00 0.07 0.05 96 1019.2
20191122094037 43 333 7.0 14.0 0.00 0.07 0.05 96 1019.3
20191122093536 43 298 8.0 14.0 0.00 0.07 0.05 96 1019.1
20191122093155 43 327 8.0 15.0 0.00 0.07 0.05 96 1018.9
20191122092548 43 325 9.0 15.0 0.00 0.07 0.05 96 1018.9
20191122092035 43 331 8.0 15.0 0.00 0.07 0.05 96 1018.8
20191122091625 43 309 6.0 14.0 0.00 0.07 0.05 96 1018.9
20191122091035 43 303 8.0 14.0 0.01 0.07 0.05 96 1018.9
20191122090534 43 323 7.0 15.0 0.01 0.07 0.05 96 1018.9
20191122090147 43 338 7.0 15.0 0.01 0.07 0.05 96 1018.6
20191122085534 43 355 6.0 19.0 0.01 0.07 0.05 96 1018.6
20191122085033 43 321 9.0 19.0 0.01 0.07 0.05 96 1018.6
20191122084556 43 294 9.0 19.0 0.01 0.07 0.05 96 1018.8
20191122084039 43 344 6.0 17.0 0.01 0.07 0.05 96 1018.7
20191122083545 43 317 8.0 17.0 0.01 0.07 0.05 97 1018.8
20191122083103 44 331 7.0 15.0 0.01 0.07 0.05 97 1018.8
20191122082538 44 328 6.0 14.0 0.01 0.07 0.05 97 1018.6
20191122082033 44 331 7.0 18.0 0.01 0.07 0.05 97 1018.6
20191122081610 44 302 8.0 18.0 0.01 0.07 0.05 96 1018.6
20191122081032 44 285 9.0 18.0 0.00 0.06 0.04 96 1018.4
20191122080532 44 310 11.0 17.0 0.00 0.06 0.04 96 1018.5
20191122080051 44 345 8.0 15.0 0.01 0.06 0.04 96 1018.6
20191122075527 44 298 9.0 15.0 0.01 0.06 0.04 96 1018.5
20191122075025 44 323 8.0 16.0 0.03 0.06 0.04 96 1018.5
20191122074609 44 320 8.0 16.0 0.03 0.06 0.04 96 1018.3
20191122074023 44 282 8.0 16.0 0.03 0.06 0.04 97 1018.2
20191122073524 44 293 8.0 17.0 0.03 0.06 0.04 97 1018.2
20191122073054 44 298 6.0 14.0 0.03 0.06 0.04 97 1017.8
20191122072525 44 323 7.0 13.0 0.03 0.06 0.04 96 1017.7
20191122072019 44 310 7.0 14.0 0.04 0.06 0.04 97 1017.9
20191122071533 44 322 6.0 13.0 0.04 0.06 0.04 96 1017.7
20191122071019 44 293 7.0 13.0 0.04 0.06 0.04 96 1017.8
20191122070519 45 336 7.0 11.0 0.04 0.06 0.04 97 1017.6
20191122070030 44 300 5.0 12.0 0.03 0.05 0.03 96 1018.0
20191122065518 44 306 7.0 13.0 0.03 0.05 0.03 96 1017.9
20191122065018 45 307 6.0 14.0 0.01 0.03 0.01 96 1017.8
20191122064527 45 296 8.0 14.0 0.01 0.03 0.01 96 1017.6
20191122064016 45 330 5.0 14.0 0.01 0.03 0.01 96 1017.6
20191122063515 45 313 8.0 13.0 0.01 0.03 0.01 97 1017.6
20191122063030 45 325 7.0 13.0 0.01 0.03 0.01 97 1017.6
20191122062513 45 296 7.0 13.0 0.01 0.03 0.01 97 1017.8
20191122062011 45 292 4.0 12.0 0.00 0.02 0.00 97 1017.8
20191122061518 45 325 6.0 11.0 0.00 0.02 0.00 97 1017.5
20191122061013 45 310 6.0 11.0 0.00 0.02 0.00 97 1017.5
20191122060508 45 311 6.0 15.0 0.00 0.02 0.00 97 1017.3
20191122060010 45 331 5.0 15.0 0.00 0.02 0.00 97 1017.3
20191122055506 45 337 5.0 9.0 0.00 0.02 0.02 97 1016.8
20191122055007 45 325 3.0 8.0 0.00 0.02 0.02 97 1016.7
20191122054509 45 333 4.0 8.0 0.00 0.02 0.02 97 1016.5
20191122054004 45 322 3.0 8.0 0.00 0.02 0.02 97 1016.5
20191122053504 45 345 5.0 8.0 0.00 0.02 0.02 97 1016.5
20191122053007 45 320 3.0 8.0 0.00 0.02 0.02 97 1016.6
20191122052502 45 333 4.0 8.0 0.00 0.02 0.02 97 1016.4
20191122052004 45 337 3.0 8.0 0.00 0.02 0.02 97 1016.5
20191122051503 45 355 4.0 10.0 0.00 0.02 0.02 96 1016.4
20191122051002 45 347 5.0 10.0 0.00 0.02 0.02 96 1016.5
20191122050503 45 22 3.0 9.0 0.00 0.02 0.02 96 1016.4
20191122050308 45 327 4.0 10.0 0.00 0.02 0.02 96 1016.5
20191122045600 45 346 4.0 10.0 0.00 0.02 0.02 96 1016.5
20191122045100 45 336 3.0 8.0 0.00 0.02 0.02 96 1016.5
20191122044859 45 346 2.0 6.0 0.00 0.02 0.02 96 1016.6
20191122044057 45 355 2.0 10.0 0.00 0.02 0.02 96 1016.6
20191122043557 45 351 5.0 10.0 0.00 0.02 0.02 96 1016.6
20191122043235 45 340 5.0 12.0 0.00 0.02 0.02 96 1016.8
20191122042555 45 309 7.0 12.0 0.00 0.02 0.02 96 1016.7
20191122042112 45 340 5.0 10.0 0.00 0.02 0.02 96 1016.7
20191122041621 45 360 5.0 10.0 0.00 0.02 0.02 96 1016.7
20191122041101 46 317 4.0 8.0 0.00 0.02 0.02 96 1016.8
20191122040553 46 325 4.0 10.0 0.00 0.02 0.02 96 1016.6
20191122040131 46 345 6.0 10.0 0.00 0.02 0.02 96 1016.8
20191122035559 46 302 4.0 10.0 0.00 0.02 0.02 96 1016.9
20191122035101 46 355 6.0 12.0 0.00 0.02 0.02 96 1016.9
20191122034706 46 336 6.0 13.0 0.00 0.02 0.02 96 1016.9
20191122034049 46 324 6.0 13.0 0.00 0.02 0.02 96 1017.0
20191122033549 46 281 5.0 13.0 0.00 0.02 0.02 96 1016.8
20191122033134 46 325 6.0 13.0 0.00 0.02 0.02 96 1016.7
20191122032550 46 300 5.0 11.0 0.00 0.02 0.02 96 1016.7
20191122032047 46 342 5.0 9.0 0.00 0.02 0.02 96 1016.5
20191122031619 46 299 4.0 11.0 0.01 0.02 0.02 96 1016.4
20191122031051 46 329 5.0 13.0 0.01 0.02 0.02 96 1016.5
20191122030558 46 318 8.0 13.0 0.01 0.02 0.02 96 1016.2
20191122030144 46 343 4.0 11.0 0.01 0.02 0.02 96 1016.2
20191122025542 46 333 3.0 12.0 0.01 0.02 0.02 96 1016.3
20191122025052 46 327 4.0 10.0 0.01 0.02 0.02 96 1016.3